Humidity-temperature Sensor

Selected Measurement Type: Relative Humidity

 
Relative Humidity [%]     6 entries per hour
Showing data from 5/11/2022 (00:00:00 Z) to 5/8/2022 (00:01:00 Z)
Previous Next [ Day | 3-Days | 7-Days ]
First Last
Prev [ Day | 3-Days | 7-Days ] Next
First Last

Start Time:     :
End Time:     :     
Time (in GMT) :00 :50 :40 :30 :20 :10
Previous Next [ Day | 3-Days | 7-Days ]
First Last
Prev [ Day | 3-Days | 7-Days ] Next
First Last


123 => good data
MM => data is determined as missing
-- => data not received/configured
Back to Top Back to Top
5/11/2022 00:00 to 23:10 88.35 88.35 88.27 88.15 87.86 87.45
5/10/2022 23:00 to 22:10 87.39 87.86 87.53 87.35 87.57 87.33
5/10/2022 22:00 to 21:10 87.29 87.78 87.86 87.76 87.61 87.86
5/10/2022 21:00 to 20:10 87.96 87.39 85.85 85.87 86.07 86.16
5/10/2022 20:00 to 19:10 86.50 86.59 87.20 87.39 87.45 86.28
5/10/2022 19:00 to 18:10 84.98 85.85 87.06 86.18 87.10 87.20
5/10/2022 18:00 to 17:10 87.10 86.77 86.22 85.99 85.44 84.90
5/10/2022 17:00 to 16:10 84.78 84.66 84.98 85.13 84.70 84.74
5/10/2022 16:00 to 15:10 85.33 85.15 84.76 84.45 84.84 84.92
5/10/2022 15:00 to 14:10 85.03 84.94 84.94 85.68 85.99 85.72
5/10/2022 14:00 to 13:10 85.46 85.27 84.45 84.86 85.64 85.35
5/10/2022 13:00 to 12:10 85.17 86.09 85.89 86.07 86.20 85.70
5/10/2022 12:00 to 11:10 85.39 85.48 85.76 86.42 86.67 86.57
5/10/2022 11:00 to 10:10 86.40 86.65 87.22 87.31 87.14 87.74
5/10/2022 10:00 to 9:10 87.82 88.37 88.48 88.21 88.27 88.83
5/10/2022 09:00 to 8:10 88.27 88.00 87.61 87.51 87.41 87.55
5/10/2022 08:00 to 7:10 87.84 87.84 87.20 86.61 86.16 86.18
5/10/2022 07:00 to 6:10 86.55 87.12 87.51 86.57 86.26 87.20
5/10/2022 06:00 to 5:10 86.87 86.05 85.54 85.85 86.16 85.91
5/10/2022 05:00 to 4:10 86.55 86.42 85.87 86.71 87.35 87.20
5/10/2022 04:00 to 3:10 86.92 87.06 86.94 87.29 86.44 85.87
5/10/2022 03:00 to 2:10 84.31 83.83 83.05 83.16 83.73 83.69
5/10/2022 02:00 to 1:10 83.65 83.38 83.73 83.85 83.40 84.12
5/10/2022 01:00 to 0:10 84.16 83.69 83.32 83.01 83.83 83.73
5/10/2022 00:00 to 23:10 83.63 83.59 84.18 83.83 83.24 84.59
5/9/2022 23:00 to 22:10 84.43 84.39 83.57 83.38 83.85 84.59
5/9/2022 22:00 to 21:10 85.00 84.33 84.55 84.33 84.98 85.00
5/9/2022 21:00 to 20:10 84.86 85.15 84.94 84.78 85.00 84.66
5/9/2022 20:00 to 19:10 84.94 84.74 84.51 83.83 83.63 84.18
5/9/2022 19:00 to 18:10 84.78 84.68 84.66 84.78 84.84 84.80
5/9/2022 18:00 to 17:10 84.43 84.41 84.80 85.15 84.63 83.63
5/9/2022 17:00 to 16:10 83.38 83.18 84.29 84.37 84.43 83.92
5/9/2022 16:00 to 15:10 83.18 83.09 82.97 82.42 82.46 82.60
5/9/2022 15:00 to 14:10 83.46 84.49 85.50 87.59 89.01 89.28
5/9/2022 14:00 to 13:10 87.12 84.96 84.66 85.54 86.67 87.10
5/9/2022 13:00 to 12:10 86.94 85.39 83.01 82.64 82.31 81.88
5/9/2022 12:00 to 11:10 82.48 83.73 84.06 83.98 84.39 85.89
5/9/2022 11:00 to 10:10 87.43 88.23 89.01 89.55 87.76 84.63
5/9/2022 10:00 to 9:10 85.03 84.59 85.21 85.27 85.39 85.91
5/9/2022 09:00 to 8:10 85.79 85.68 85.00 85.11 84.63 85.09
5/9/2022 08:00 to 7:10 85.42 84.53 83.73 84.12 84.90 84.57
5/9/2022 07:00 to 6:10 84.20 83.92 84.04 85.09 85.19 85.87
5/9/2022 06:00 to 5:10 86.55 86.13 86.03 86.50 86.30 85.79
5/9/2022 05:00 to 4:10 85.95 85.95 85.83 86.20 86.65 86.46
5/9/2022 04:00 to 3:10 85.97 86.20 86.46 86.50 86.53 86.46
5/9/2022 03:00 to 2:10 85.72 85.83 85.35 84.90 85.09 85.19
5/9/2022 02:00 to 1:10 85.76 85.52 84.80 84.43 83.67 84.08
5/9/2022 01:00 to 0:10 83.59 84.26 84.33 84.41 84.14 84.26
5/9/2022 00:00 to 23:10 84.84 84.51 84.72 84.41 85.29 85.13
5/8/2022 23:00 to 22:10 84.16 84.04 84.72 85.09 84.90 84.35
5/8/2022 22:00 to 21:10 84.20 84.88 85.33 85.09 85.62 85.79
5/8/2022 21:00 to 20:10 85.60 85.35 85.09 84.90 85.21 85.52
5/8/2022 20:00 to 19:10 85.97 86.46 86.75 86.38 86.85 86.94
5/8/2022 19:00 to 18:10 86.03 86.09 85.72 86.13 85.83 86.22
5/8/2022 18:00 to 17:10 86.18 86.38 86.46 86.42 86.28 85.72
5/8/2022 17:00 to 16:10 85.74 85.39 84.86 85.13 85.44 85.17
5/8/2022 16:00 to 15:10 85.97 86.38 86.85 87.41 87.84 87.90
5/8/2022 15:00 to 14:10 88.21 88.29 88.21 88.33 88.81 89.07
5/8/2022 14:00 to 13:10 89.36 88.99 88.35 88.70 89.11 89.61
5/8/2022 13:00 to 12:10 89.94 90.43 90.47 90.53 90.35 90.35
5/8/2022 12:00 to 11:10 90.35 90.74 91.27 91.13 91.11 90.80
5/8/2022 11:00 to 10:10 91.17 91.07 90.68 90.55 90.57 90.84
5/8/2022 10:00 to 9:10 91.37 91.13 90.86 90.66 90.74 90.49
5/8/2022 09:00 to 8:10 90.96 90.98 90.47 90.47 91.00 91.33
5/8/2022 08:00 to 7:10 91.25 91.25 91.58 91.50 91.54 91.66
5/8/2022 07:00 to 6:10 91.87 91.58 91.50 91.19 91.35 91.60
5/8/2022 06:00 to 5:10 91.87 92.18 93.00 95.09 96.94 97.68
5/8/2022 05:00 to 4:10 97.40 96.98 96.10 95.18 94.91 93.82
5/8/2022 04:00 to 3:10 93.35 92.98 91.83 90.45 89.96 89.50
5/8/2022 03:00 to 2:10 89.55 89.59 88.70 89.09 89.22 88.66
5/8/2022 02:00 to 1:10 88.72 89.32 90.33 90.06 90.45 91.99
5/8/2022 01:00 to 0:10 92.92 93.16 93.55 94.64 95.16 93.92